CZ-6A DEB, 61420

Orbit data source: Space-Track

CZ-6A DEB, 61420 is space debris in LEO originally from a launch on Tue, 06 Aug 2024 UTC launched from the Taiyaun Space Center, China (TSC). Debris objects in space refer to the collection of defunct objects orbiting the Earth. Examples of debris include non-operational satellites, rocket bodies, and fragments generated from explosions, collisions, or faulty payload assembly.

Loading next visibility...
Identifier
61420, 2024-140YM
Orbit
LEO
Country
Flag of CNCN / PRC
Related business
Manufacturer
SAST
Mission
Spacecraft
Bus & Motor
Unknown
Mass
Unknown
Launch date (UTC)
2024-08-06 (1 year ago)
Launch vehicle
Unknown
Launch site
Taiyaun Space Center, China (TSC)
Object type
Payload
Rocket body
Debris
Shape & HBR
Unknown shape, 0.1 m
Radar Cross Section
Small (<0.1 m²)

Expand to show TLE details & history
Last TLE update: 16 hours ago

TLE from 16 hours ago
0 CZ-6A DEB
1 61420U 24140YM  25350.27217500  .00002038  00000-0  72084-3 0  9990
2 61420  88.9832 293.2072 0047783 120.8407 239.7505 14.33650967 64532
Epoch: 2025-12-16T06:31Z
TLE epoch observation values (Epoch: 2025-12-16T06:31:55.920Z)
Latitude
Longitude
110.06543°
Altitude
799.981 km
Speed
7.444 km/s
True Right ascension
19h 32m 49s
True Declination
0° 00' 00"
Sunlit
Object was in daylight at epoch
Visualization orbit readout
Latitude
Unknown
Longitude
Unknown
Altitude
Unknown
Speed
Unknown
Apparent Right ascension
Unknown
Apparent Declination
Unknown
Sunlit
N/A
Visualization observer readout
Local Sidereal Time
20:56:59
Azimuth
Unknown
Elevation
Unknown
Doppler factor
Unknown
Orbital elements
Apogee altitude
810.672 km
Perigee altitude
742.298 km
Semi-major axis
7,154.622 km
Eccentricity
0.00478
Inclination
88.9832°
RAAN
293.2072°
Arg. of periapsis
120.8407°
True anomaly
239.27893°
Mean anomaly
239.7505°
Eccentric anomaly
239.51457°
Mean motion
3.58644 °/min
Orbital period
100.38 mins
BSTAR
0.00072084
Loading maneuver chart data...
Computing Atmospheric mass density...
Loading historical data...
Loading historical data...
Loading historical data...
Loading historical data...
Loading historical data...
Loading historical data...
Loading historical data...

Documentation

Showing up to 5 results
|